Change the Weather History Date:

Friday, May 16, 2014

  Actual Average Record
Temperature  
Mean Temperature 42 °F 55 °F  
Max Temperature 53 °F 66 °F 87 °F (1977)
Min Temperature 31 °F 44 °F 28 °F (1956)
Degree Days  
Heating Degree Days 23 10  
Month to date heating degree days 212 202  
Since 1 July heating degree days 8683 7739  
Cooling Degree Days 0 0  
Month to date cooling degree days 0 0  
Year to date cooling degree days 0 2  
Moisture  
Dew Point 32 °F    
Average Humidity 67    
Maximum Humidity 92    
Minimum Humidity 42    
Precipitation  
Precipitation T in 0.10 in 0.85 in (1992)
Month to date precipitation 1.72 1.36  
Year to date precipitation 9.43 8.08  
Snow  
Snow 0.00 in 0.00 in 0.10 in (1929)
Month to date snowfall 0.0 0.2  
Since 1 July snowfall 72.1 51.4  
Snow Depth 0.00 in    
Sea Level Pressure  
Sea Level Pressure 30.04 in    
Wind  
Wind Speed 6 mph (WNW)    
Max Wind Speed 14 mph    
Max Gust Speed 19 mph    
Visibility 10 miles    
Events Rain    
T = Trace of Precipitation, MM = Missing Value Source: NWS Daily Summary

Daily Weather History Graph

Daily Weather History Graph

Search for Another Location

Airport or City:

Trip Planner

Search our weather history database for the weather conditions in past years. The results will help you decide how hot, cold, wet, or windy it might be!

Date:

Astronomy

May. 16, 2014 Rise Set
Actual Time 5:23 AM CDT 8:14 PM CDT
Civil Twilight 4:50 AM CDT 8:48 PM CDT
Nautical Twilight 4:07 AM CDT 9:31 PM CDT
Astronomical Twilight 3:16 AM CDT 10:22 PM CDT
Moon 10:21 PM CDT (5/16) 7:05 AM CDT (5/16)
Length of Visible Light 15h 58m
Length of Day
14h 50m
Waning Gibbous, 95% of the Moon is Illuminated
May 16
Waning Gibbous
May 21
Last Quarter
May 28
New
Jun 5
First Quarter
Jun 12
Full

Hourly Weather History & Observations

Time (CDT) Temp. Windchill Dew Point Humidity Pressure Visibility Wind Dir Wind Speed Gust Speed Precip Events Conditions
12:53 AM 37.4 °F 32.1 °F 32.0 °F 81% 30.06 in 10.0 mi NNW 6.9 mph - N/A   Mostly Cloudy
1:53 AM 34.0 °F 29.8 °F 30.9 °F 89% 30.06 in 10.0 mi WNW 4.6 mph - N/A   Clear
2:53 AM 33.8 °F 28.6 °F 30.2 °F 87% 30.04 in 10.0 mi NW 5.8 mph - N/A   Clear
3:53 AM 33.1 °F 26.9 °F 30.0 °F 89% 30.04 in 10.0 mi West 6.9 mph - N/A   Clear
4:53 AM 32.0 °F 27.5 °F 28.9 °F 88% 30.05 in 10.0 mi WNW 4.6 mph - N/A   Clear
5:53 AM 30.9 °F - 28.9 °F 92% 30.06 in 10.0 mi Calm Calm - N/A   Clear
6:53 AM 36.0 °F 33.3 °F 28.9 °F 76% 30.06 in 10.0 mi NW 3.5 mph - N/A   Clear
7:53 AM 41.0 °F 36.4 °F 30.0 °F 65% 30.06 in 10.0 mi NW 6.9 mph - N/A   Clear
8:53 AM 44.1 °F 40.1 °F 28.9 °F 55% 30.05 in 10.0 mi North 6.9 mph - N/A   Clear
9:53 AM 46.0 °F 43.1 °F 30.0 °F 54% 30.04 in 10.0 mi WNW 5.8 mph - N/A   Clear
10:53 AM 48.0 °F - 30.9 °F 52% 30.04 in 10.0 mi NNW 8.1 mph 18.4 mph N/A   Partly Cloudy
11:53 AM 48.9 °F - 30.9 °F 50% 30.03 in 10.0 mi NW 10.4 mph - N/A   Mostly Cloudy
12:53 PM 50.0 °F - 28.9 °F 44% 30.02 in 10.0 mi West 5.8 mph - N/A   Mostly Cloudy
1:53 PM 51.1 °F - 30.9 °F 46% 30.02 in 10.0 mi West 10.4 mph - N/A   Mostly Cloudy
2:53 PM 51.1 °F - 30.9 °F 46% 30.02 in 10.0 mi NW 8.1 mph - N/A   Overcast
3:53 PM 52.0 °F - 30.9 °F 45% 30.02 in 10.0 mi WNW 9.2 mph - N/A   Overcast
4:53 PM 48.9 °F - 34.0 °F 56% 30.02 in 10.0 mi ESE 8.1 mph - N/A   Overcast
5:53 PM 48.0 °F - 35.1 °F 61% 30.03 in 10.0 mi ESE 10.4 mph - N/A   Overcast
6:53 PM 46.0 °F 41.0 °F 37.0 °F 71% 30.04 in 9.0 mi SE 10.4 mph - 0.00 in Rain Light Rain
7:53 PM 44.1 °F 38.6 °F 35.1 °F 71% 30.04 in 10.0 mi SE 10.4 mph - 0.00 in   Overcast
8:53 PM 43.0 °F 38.8 °F 36.0 °F 76% 30.05 in 10.0 mi South 6.9 mph - N/A   Mostly Cloudy
9:53 PM 42.1 °F - 35.1 °F 76% 30.06 in 10.0 mi Calm Calm - N/A   Overcast
10:53 PM 42.1 °F 39.2 °F 35.1 °F 76% 30.06 in 10.0 mi South 4.6 mph - N/A   Overcast
11:53 PM 41.0 °F 39.0 °F 36.0 °F 82% 30.05 in 10.0 mi South 3.5 mph - N/A   Overcast